Regional Weather Roundup
Issued by NWS San Angelo, TX

Home | Current Version | Previous Version | Text Only | Print | Product List | Glossary On
Versions: 1 2 3 4 5 6 7 8 9 10 11 12 13 14 15 16 17 18 19 20 21 22 23 24 25 26 27 28 29 30 31 32 33 34 35 36 37 38 39 40 41 42 43 44 45 46 47 48 49 50
000
ASUS44 KSJT 242210
RWRSJT
WEST CENTRAL TEXAS REGIONAL WEATHER ROUNDUP
NATIONAL WEATHER SERVICE SAN ANGELO TX
500 PM CDT TUE APR 24 2018

NOTE: "FAIR" INDICATES FEW OR NO CLOUDS BELOW 12,000 FEET WITH NO
SIGNIFICANT WEATHER AND/OR OBSTRUCTIONS TO VISIBILITY.

TXZ049-054-064>066-071>073-076>078-098-099-113-114-127-128-139-140-
154-155-168>170-242300
...LOCATIONS ACROSS WEST CENTRAL TEXAS...

CITY           SKY/WX    TMP DP  RH WIND       PRES   REMARKS
SAN ANGELO     CLOUDY    94  49  21 S8        29.92F
ABILENE        SUNNY     87  52  29 SE16G24   29.95F
DYESS AFB      SUNNY     89  49  24 SE17G23   29.93F
JUNCTION       SUNNY     90  48  23 SE13      29.96F
SWEETWATER     SUNNY     88  43  20 SE15G21   29.95F
BROWNWOOD      CLOUDY    86  52  30 SE15      29.97F
COLEMAN        PTCLDY    90  48  23 SE10G20   29.96F
SONORA         SUNNY     90  48  24 S14       30.00F
OZONA          FAIR      90  43  19 SE15G24   29.98F HAZE
BRADY          MOSUNNY   88  46  23 SE14      29.97F
$$

TEXAS PANHANDLE/OKLAHOMA PANHANDLE

CITY           SKY/WX    TMP DP  RH WIND       PRES   REMARKS
AMARILLO       SUNNY     59  41  51 N29G36    30.18S
BORGER         CLOUDY    56  41  57 N25G32    30.21F
CANADIAN       CLOUDY    58  45  61 N18G25    30.19S
DALHART        CLOUDY    47  37  68 N29G36    30.26S WCI  38
DUMAS          MOCLDY    49  37  63 N30G39    30.24S
GUYMON         NOT AVBL
HEREFORD       PTCLDY    64  44  47 N29G37    30.15R
PAMPA          CLOUDY    57  43  59 N21G28    30.19F
PERRYTON       CLOUDY    53  42  67 N23G31    30.21F
$$

SOUTHERN PANHANDLE/SOUTH PLAINS/ROLLING PLAINS

CITY           SKY/WX    TMP DP  RH WIND       PRES   REMARKS
LUBBOCK        PTSUNNY   86  44  23 E9        29.99F
SNYDER         SUNNY     89  44  20 S14G21    29.93F
CHILDRESS      MOSUNNY   82  49  31 E13       30.04F
SEMINOLE       PTCLDY    90  28  10 S3        29.95F
$$

PERMIAN BASIN

CITY           SKY/WX    TMP DP  RH WIND       PRES   REMARKS
MIDLAND        SUNNY     93  34  12 S8        29.92F
ODESSA         SUNNY     93  28  10 S12       29.93F
WINK           SUNNY     95  22   7 W10       29.89F
$$

FAR WEST/SOUTHWEST MOUNTAINS/TRANS PECOS

CITY           SKY/WX    TMP DP  RH WIND       PRES   REMARKS
ALPINE         PTCLDY    86  31  13 SW8       30.08F
DRYDEN           N/A     93  50  23 E14G23    29.90F
EL PASO        MOSUNNY   92  17   6 S12       29.97F
FORT STOCKTON  MOSUNNY   93  33  12 S21G28    29.92F
GUADALUPE PASS SUNNY     88  21   8 W14G21    30.10F
MARFA          PTSUNNY   83  32  16 SW8       30.07F
PECOS          CLEAR     96  31  10 SE13G21   29.89F
$$

DALLAS/FORT WORTH METROPLEX

CITY           SKY/WX    TMP DP  RH WIND       PRES   REMARKS
DFW AIRPORT    PTSUNNY   84  47  27 E6        29.99F
FTW MEACHAM    SUNNY     85  49  28 N5        30.00F
DAL-EXECUTIVE  SUNNY     82  50  32 CALM      30.00F
GRAND PRAIRIE  SUNNY     82  48  30 CALM      30.02F
ADDISON        SUNNY     81  46  30 CALM      30.01F
MESQUITE       CLEAR     81  46  30 NW3       30.02F
LANCASTER      CLEAR     81  50  33 CALM      30.02S
$$

NORTH CENTRAL TEXAS

CITY           SKY/WX    TMP DP  RH WIND       PRES   REMARKS
SHRMAN/DENISON CLEAR     78  48  34 CALM      30.04S
GAINESVILLE    SUNNY     79  48  33 SE6       30.04F
BRIDGEPORT     CLEAR     82  49  32 SE6       30.03F
DENTON         SUNNY     81  51  35 VRB6      30.01F
WAXAHACHIE     CLEAR     82  55  39 CALM      30.02F
GRANBURY       CLEAR     85  52  32 E7        30.02S
$$

WESTERN NORTH TEXAS

CITY           SKY/WX    TMP DP  RH WIND       PRES   REMARKS
WICHITA FALLS  MOSUNNY   81  51  35 E8        30.01F
VERNON         PTCLDY    83  48  29 SE8       30.03F
BRECKENRIDGE   CLEAR     88  50  26 S9        29.98F HAZE
COMANCHE       SUNNY     86  56  34 SE10G16   29.99F
$$

CENTRAL AND SOUTH CENTRAL TEXAS

CITY           SKY/WX    TMP DP  RH WIND       PRES   REMARKS
AUSTIN/BERGSTM PTSUNNY   84  56  38 S6        29.99F
WACO           MOSUNNY   85  52  32 CALM      29.99F
HILLSBORO      CLEAR     82  58  42 SE6       30.00F
TEMPLE         NOT AVBL
KILLEEN-GRAY   NOT AVBL
FORT HOOD      NOT AVBL
GEORGETOWN     SUNNY     85  59  41 SE6       30.01F
LAGO VISTA     FAIR      86  54  33 S8        30.01F
SAN MARCOS     MOSUNNY   85  56  37 SE9       30.00F
NEW BRAUNFELS  MOSUNNY   86  53  32 MISG      29.98F
RANDOLPH AFB   MOSUNNY   84  56  38 SE12      29.98F
SAN ANTONIO    PTSUNNY   86  51  29 SE14      29.99F
STINSON        MOSUNNY   89  54  30 SE10      29.95F
PLEASANTON     NOT AVBL
LA GRANGE      MOSUNNY   84  58  40 E5        29.99F
GIDDINGS       PTCLDY    83  55  37 SW6       30.01F
$$

EAST TEXAS

CITY           SKY/WX    TMP DP  RH WIND       PRES   REMARKS
PARIS          SUNNY     79  47  32 W6        30.02F
CLARKSVILLE    NOT AVBL
TYLER          SUNNY     82  44  26 N8        30.01F
LONGVIEW       SUNNY     80  50  34 VRB7      30.00F
PALESTINE      CLEAR     80  53  38 NW5       30.02F
NACOGDOCHES      N/A     80  54  40 NW7       30.01F
$$

TEXAS HILL COUNTRY AND EDWARDS PLATEAU

CITY           SKY/WX    TMP DP  RH WIND       PRES   REMARKS
LLANO          PTCLDY    93  52  24 S5G17     29.99F
HORSESHOE BAY  FAIR      89  54  29 S6        29.99F
KERRVILLE      MOSUNNY   85  52  32 SE13      30.00F
FREDERICKSBRG  SUNNY     86  46  24 SE10      30.00F
ROCKSPRINGS    MOCLDY    86  55  35 S12G20    30.05F
HONDO          CLOUDY    90  55  30 SE12      29.96F
UVALDE         PTCLDY    90  56  31 S15G22    29.95F
DEL RIO        MOSUNNY   94  60  32 SE13G22   29.89F
$$

SOUTHEAST TEXAS

CITY           SKY/WX    TMP DP  RH WIND       PRES   REMARKS
COLLEGE STN    MOSUNNY   83  57  41 W5        30.00F
CALDWELL       PTCLDY    82  58  44 SE3       30.01F
CROCKETT       CLEAR     81  55  41 CALM      30.03F
BRENHAM        MOSUNNY   83  58  42 CALM      30.01F
HUNTSVILLE     CLOUDY    83  56  39 CALM      30.01F
CONROE         MOSUNNY   83  57  41 N6        30.00F
HOUSTON BUSH   PTSUNNY   84  59  42 VRB3      29.99F
HOUSTON HOBBY  PTSUNNY   85  57  38 N5        29.98F
PERLAND        FAIR      85  55  35 W6        30.00F
WHARTON        PTCLDY    85  51  31 NE3       30.01S
$$

THE UPPER TEXAS COAST

CITY           SKY/WX    TMP DP  RH WIND       PRES   REMARKS
ORANGE         FAIR      82  56  41 N5        30.00F
PORT ARTHUR    FAIR      83  54  36 N10       29.97F
GALVESTON      FAIR      76  61  59 S8        30.00F
ANGLETON       FAIR      82  61  48 S10       30.00F
BAY CITY       FAIR      82  63  51 S7        30.00F
$$

TEXAS COASTAL BEND, RIO GRANDE PLAINS DEEP SOUTH TEXAS

CITY           SKY/WX    TMP DP  RH WIND       PRES   REMARKS
VICTORIA       MOSUNNY   87  55  33 S9        29.98F
BEEVILLE       FAIR      88  55  32 SE14      29.98S
ROCKPORT       SUNNY     77  63  61 SE15      29.99F
PORT ARANSAS   NOT AVBL
PORT LAVACA    CLEAR     84  56  38 SE6       29.99F
CORPUS CHRISTI PTSUNNY   83  56  39 E16       29.99F
KINGSVILLE NAS PTSUNNY   85  53  33 SE14      29.98F
COTULLA        SUNNY     95  55  26 SE12      29.91F
LAREDO         PTSUNNY   94  64  37 SE10      29.92F
BROWNSVILLE    FAIR      86  59  39 E16G24    29.99F
PORT ISABEL    FAIR      79  64  60 E17       29.98F
HEBBRONVILLE   MOCLDY    91  53  27 SE13G18   29.94F
MCALLEN        MOSUNNY   91  61  36 SE16G24   29.95F
WESLACO        CLOUDY    87  48  25 S15G21    29.95F
FALFURRIAS     PTCLDY    88  47  24 SE15G23   29.96S
EDINBURG       PTCLDY    92  44  19 SE14G21   29.95F
$$




USA.gov is the U.S. government's official web portal to all federal, state and local government web resources and services.